SPACEBEE-32 (46945 NORAD) Tracking and Keplerian Element Data

This shows tracking and keplerian element data for the satellite.

Feedback or suggestion? Click here.




ElementValue
Catalog46945
NameSPACEBEE-32
Epoch Orbit894
Epoch Day17.95402815
Epoch Year2021
RAAN157.3083
Inclination97.3733
Eccentricity0.0016419
Argument of Perigee103.6621
Mean Anonmoly256.644
Mean Motion15.20956366
Decay Rate3.547E-05
L11 46945U 20085S 21017.95402815 .00003547 00000-0 16271-3 0 9997
L22 46945 97.3733 157.3083 0016419 103.6621 256.6440 15.20956366 8940

Live tracking and technical data element details for SPACEBEE-32 (NORAD 46945). SPACEBEE-32 can be tracked NOW for your location showing map with azimuth and elevation plus other details from your city location.

Track the satellite on the map from your city or location and see movement details for azimuth, elevation, latitude, longitude, range, height, and movement on the map or in text.







IsCatalogInMostPopularTable: catalog: 46945, numindb: 19
Update: records affected: 1



GetName: 46945 SPACEBEE-32

Hit Count: updated at: Tue, 19 Jan 2021 01:34:20 GMT